Location: Balcones
(3.7244°N, 75.6017°W)
Time: 16:04:01
(UTC+00:00)

BlueWalker 3 - Visible Passes

Search period start: 14 March 2026 00:00
Search period end: 24 March 2026 00:00
Orbit: 451 x 457 km, 53.2° (Epoch: 14 March)

Date Brightness Start Highest point End Pass type
(mag) Time Alt. Az. Time Alt. Az. Time Alt. Az.
16 Mar 4.3 00:58:56 10° SW 00:59:42 16° SW 00:59:42 16° SW visible
17 Mar 1.8 00:22:51 10° SSW 00:26:16 53° SE 00:26:16 53° SE visible
17 Mar 2.5 23:46:56 10° S 23:50:10 32° ESE 23:53:01 12° ENE visible
19 Mar 4.7 00:49:19 10° W 00:51:14 14° NW 00:53:07 10° NNW visible
20 Mar 4.3 00:12:14 10° WSW 00:15:00 21° NW 00:17:45 10° N visible
20 Mar 4.4 10:15:13 10° N 10:17:58 21° NE 10:20:42 10° ESE visible
20 Mar 3.6 23:35:33 10° WSW 23:38:46 32° NW 23:42:00 10° N visible
21 Mar 4.7 09:39:52 10° NNE 09:41:43 14° NE 09:43:35 10° E visible
22 Mar 2.5 10:39:30 10° WNW 10:42:44 33° WSW 10:45:58 10° S visible
23 Mar 1.8 10:05:02 30° WNW 10:06:30 54° WSW 10:10:00 10° SSE visible
